TimeCDT,TemperatureF,Dew PointF,Humidity,Sea Level PressureIn,VisibilityMPH,Wind Direction,Wind SpeedMPH,Gust SpeedMPH,PrecipitationIn,Events,Conditions,WindDirDegrees,DateUTC
12:15 AM,43.0,36.1,77,29.94,10.0,North,8.1,-,N/A,,Clear,360,2013-10-28 05:15:00
12:35 AM,41.4,35.6,80,29.95,10.0,North,8.1,-,N/A,,Clear,360,2013-10-28 05:35:00
12:55 AM,41.2,35.8,81,29.96,10.0,North,8.1,-,N/A,,Clear,360,2013-10-28 05:55:00
1:15 AM,42.1,36.3,80,29.97,10.0,North,9.2,-,N/A,,Clear,10,2013-10-28 06:15:00
1:35 AM,43.7,36.7,76,29.97,10.0,NNE,9.2,-,N/A,,Clear,20,2013-10-28 06:35:00
1:55 AM,44.1,36.5,75,29.98,10.0,NNE,9.2,-,N/A,,Clear,20,2013-10-28 06:55:00
2:15 AM,42.8,35.6,76,29.99,10.0,NNE,10.4,-,N/A,,Clear,20,2013-10-28 07:15:00
2:35 AM,43.0,35.6,75,29.99,10.0,North,11.5,-,N/A,,Clear,10,2013-10-28 07:35:00
2:55 AM,44.1,35.2,71,30.00,10.0,NNE,11.5,-,N/A,,Clear,20,2013-10-28 07:55:00
3:15 AM,44.1,35.1,71,30.00,10.0,NNE,11.5,-,N/A,,Clear,30,2013-10-28 08:15:00
3:35 AM,43.7,34.7,71,30.00,7.0,NNE,10.4,-,N/A,,Clear,30,2013-10-28 08:35:00
3:55 AM,43.3,34.7,72,30.01,4.0,NNE,13.8,18.4,N/A,Rain,Light Rain,20,2013-10-28 08:55:00
4:15 AM,42.4,34.3,73,30.02,5.0,NE,10.4,-,N/A,Rain,Light Rain,40,2013-10-28 09:15:00
4:35 AM,42.1,34.3,74,30.02,7.0,NE,11.5,-,N/A,Rain,Light Rain,40,2013-10-28 09:35:00
4:55 AM,41.9,34.2,74,30.02,5.0,NNE,10.4,-,N/A,Rain,Light Rain,30,2013-10-28 09:55:00
5:15 AM,41.5,34.0,75,30.04,3.0,NNE,9.2,-,N/A,Rain,Light Rain,30,2013-10-28 10:15:00
5:35 AM,41.4,34.0,75,30.06,3.0,NNE,9.2,-,N/A,Rain,Light Rain,30,2013-10-28 10:35:00
5:55 AM,41.2,33.8,75,30.06,3.0,NNE,11.5,-,N/A,Rain,Light Rain,30,2013-10-28 10:55:00
6:15 AM,40.6,33.8,77,30.07,3.0,NNE,11.5,-,N/A,Rain,Light Rain,30,2013-10-28 11:15:00
6:35 AM,40.1,33.4,77,30.08,3.0,NNE,11.5,-,N/A,Rain,Light Rain,30,2013-10-28 11:35:00
6:55 AM,39.7,33.3,78,30.10,4.0,NNE,9.2,-,N/A,Rain,Light Rain,30,2013-10-28 11:55:00
7:15 AM,39.9,33.3,77,30.11,3.0,NNE,11.5,-,N/A,Rain,Light Rain,30,2013-10-28 12:15:00
7:35 AM,39.2,32.9,78,30.12,3.0,NNE,10.4,16.1,N/A,Rain,Light Rain,30,2013-10-28 12:35:00
7:55 AM,38.8,32.9,79,30.12,2.5,NNE,10.4,-,N/A,Rain,Light Rain,30,2013-10-28 12:55:00
8:15 AM,38.7,32.9,80,30.13,2.0,NNE,11.5,-,N/A,Rain,Light Rain,20,2013-10-28 13:15:00
8:35 AM,38.7,33.1,80,30.14,3.0,NE,12.7,-,N/A,Rain,Light Rain,40,2013-10-28 13:35:00
8:55 AM,40.6,33.6,76,30.15,5.0,NE,13.8,-,N/A,,Drizzle,40,2013-10-28 13:55:00
9:15 AM,41.9,33.4,72,30.16,10.0,NE,16.1,19.6,N/A,,Clear,50,2013-10-28 14:15:00
9:35 AM,42.8,33.4,70,30.16,10.0,ENE,20.7,24.2,N/A,,Clear,60,2013-10-28 14:35:00
9:55 AM,43.3,33.4,68,30.17,10.0,NE,20.7,-,N/A,,Clear,40,2013-10-28 14:55:00
10:15 AM,43.7,33.3,67,30.17,10.0,NE,18.4,-,N/A,,Clear,40,2013-10-28 15:15:00
10:35 AM,44.1,33.1,65,30.17,10.0,NE,19.6,26.5,N/A,,Clear,50,2013-10-28 15:35:00
10:55 AM,45.1,33.4,64,30.17,10.0,NE,17.3,-,N/A,,Clear,50,2013-10-28 15:55:00
11:15 AM,46.0,33.4,61,30.17,10.0,ENE,16.1,24.2,N/A,,Clear,60,2013-10-28 16:15:00
11:35 AM,47.7,34.0,59,30.18,10.0,East,15.0,20.7,N/A,,Clear,80,2013-10-28 16:35:00
11:55 AM,47.3,33.8,59,30.18,10.0,ENE,16.1,-,N/A,,Clear,60,2013-10-28 16:55:00
12:15 PM,48.6,34.3,58,30.18,10.0,ENE,11.5,-,N/A,,Scattered Clouds,60,2013-10-28 17:15:00
12:35 PM,50.9,34.9,54,30.19,10.0,ENE,12.7,-,N/A,,Scattered Clouds,70,2013-10-28 17:35:00
12:55 PM,51.1,34.7,54,30.17,10.0,NE,15.0,-,N/A,,Clear,50,2013-10-28 17:55:00
1:15 PM,52.7,35.1,51,30.17,10.0,ENE,13.8,-,N/A,,Clear,60,2013-10-28 18:15:00
1:35 PM,52.0,34.9,52,30.16,10.0,NE,13.8,-,N/A,,Clear,50,2013-10-28 18:35:00
1:55 PM,52.7,35.1,51,30.15,10.0,NE,15.0,-,N/A,,Clear,50,2013-10-28 18:55:00
2:15 PM,53.1,35.1,50,30.15,7.0,ENE,16.1,19.6,N/A,,Light Drizzle,60,2013-10-28 19:15:00
2:35 PM,53.1,35.1,50,30.14,10.0,NE,12.7,-,N/A,,Clear,40,2013-10-28 19:35:00
2:55 PM,52.9,35.4,52,30.14,10.0,NE,16.1,20.7,N/A,,Clear,50,2013-10-28 19:55:00
3:15 PM,53.1,35.1,50,30.13,10.0,NE,19.6,-,N/A,,Clear,50,2013-10-28 20:15:00
3:35 PM,52.9,35.2,51,30.13,10.0,NE,16.1,23.0,N/A,,Clear,50,2013-10-28 20:35:00
3:55 PM,52.7,34.9,51,30.12,10.0,NE,19.6,24.2,N/A,,Clear,50,2013-10-28 20:55:00
4:15 PM,53.1,35.2,51,30.13,10.0,NE,18.4,21.9,N/A,,Clear,50,2013-10-28 21:15:00
4:35 PM,53.2,35.6,51,30.14,10.0,NE,12.7,-,N/A,,Clear,50,2013-10-28 21:35:00
4:55 PM,53.4,35.8,51,30.15,10.0,ENE,13.8,-,N/A,,Clear,60,2013-10-28 21:55:00
5:15 PM,53.1,35.2,51,30.14,10.0,ENE,15.0,23.0,N/A,,Clear,70,2013-10-28 22:15:00
5:35 PM,52.7,35.2,52,30.14,10.0,ENE,12.7,-,N/A,,Clear,70,2013-10-28 22:35:00
5:55 PM,52.0,35.4,53,30.13,10.0,NE,17.3,23.0,N/A,,Clear,50,2013-10-28 22:55:00
6:15 PM,51.3,35.2,54,30.14,10.0,ENE,13.8,-,N/A,,Clear,60,2013-10-28 23:15:00
6:35 PM,50.9,35.4,55,30.14,10.0,ENE,17.3,-,N/A,,Clear,60,2013-10-28 23:35:00
6:55 PM,50.7,35.6,56,30.14,10.0,ENE,12.7,18.4,N/A,,Mostly Cloudy,60,2013-10-28 23:55:00
7:15 PM,50.5,35.8,57,30.15,10.0,ENE,12.7,19.6,N/A,,Mostly Cloudy,60,2013-10-29 00:15:00
7:35 PM,50.2,36.0,58,30.14,10.0,ENE,16.1,-,N/A,,Overcast,60,2013-10-29 00:35:00
7:55 PM,48.6,37.8,66,30.15,10.0,ENE,15.0,19.6,N/A,Rain,Light Rain,70,2013-10-29 00:55:00
8:15 PM,48.2,38.3,69,30.16,10.0,ENE,13.8,18.4,N/A,Rain,Light Rain,60,2013-10-29 01:15:00
8:35 PM,47.7,38.3,70,30.16,10.0,ENE,10.4,-,N/A,Rain,Light Rain,60,2013-10-29 01:35:00
8:55 PM,47.5,38.3,70,30.16,10.0,ENE,12.7,-,N/A,,Overcast,70,2013-10-29 01:55:00
9:15 PM,47.5,38.3,70,30.15,10.0,ENE,11.5,-,N/A,,Overcast,70,2013-10-29 02:15:00
9:35 PM,47.3,38.3,71,30.13,10.0,ENE,17.3,21.9,N/A,,Overcast,70,2013-10-29 02:35:00
9:55 PM,47.3,38.1,70,30.16,10.0,ENE,11.5,-,N/A,,Overcast,70,2013-10-29 02:55:00
10:15 PM,47.3,38.3,71,30.15,10.0,East,12.7,-,N/A,,Overcast,80,2013-10-29 03:15:00
10:35 PM,47.3,38.5,71,30.16,10.0,East,9.2,-,N/A,,Overcast,80,2013-10-29 03:35:00
10:55 PM,47.1,39.4,74,30.16,10.0,ENE,10.4,-,N/A,Rain,Light Rain,60,2013-10-29 03:55:00
11:15 PM,46.4,40.1,79,30.16,10.0,NE,9.2,-,N/A,Rain,Light Rain,40,2013-10-29 04:15:00
11:35 PM,45.9,40.5,81,30.17,10.0,NE,9.2,-,0.01,Rain,Rain,40,2013-10-29 04:35:00
11:55 PM,45.5,40.5,83,30.19,10.0,NE,8.1,-,0.01,,Overcast,40,2013-10-29 04:55:00